Northern Grand Banks: Past 24 Hour Conditions

 

Cartwright Airport

01:00 AM ADT 21 August 2014
This table is a summary of hourly weather conditions for the past 24 hours.
Date / Time
(ADT)
Wind(knots) Conditions Visibility(km) Pressure(kPa) Air tempC) Relative humidity(%) Dew pointC)
21 August 2014
1:00 NNW 12 Light Rain 0.4 101.9 9 99 8
0:00 N 10 Light Rain 0.4 101.9 9 99 8
20 August 2014
23:00 N 12 Light Drizzle 0.4 101.9 9 100 9
22:00 NNW 5 Light Drizzle 0.2 101.9 9 99 9
21:00 N 7 Light Drizzle 0.2 101.9 10 99 9
20:00 N 5 Light Drizzle 0.2 101.9 10 100 10
19:00 NE 7 Light Drizzle 0.2 101.8 11 97 10
18:00 NE 7 Light Drizzle 0.2 101.8 12 100 12
17:00 NE 5 Light Drizzle 2 101.8 12 100 12
16:00 NE 10 Light Drizzle 2 101.7 13 99 12
15:00 NE 10 Light Drizzle 2 101.7 13 100 13
14:00 NE 12 Light Drizzle 2 101.7 13 100 13
13:00 ENE 8 Light Drizzle 0.8 101.7 12 100 12
12:00 ENE 5 Light Drizzle 2 101.7 12 100 12
11:00 ENE 10 gust 19 Light Drizzle 2 101.7 13 100 13
10:00 ENE 3 Light Drizzle 0.8 101.6 12 99 12
9:00 ENE 5 Light Drizzle 0.8 101.6 12 100 12
8:00 ENE 10 Light Drizzle 0.4 101.6 12 100 12
7:00 NE 10 Light Drizzle 0.4 101.5 11 100 11
6:00 ENE 5 Light Drizzle 2 101.5 11 99 11
5:00 ENE 5 Light Rain and Drizzle 2 101.5 12 99 11
4:00 NE 4 Light Rain and Drizzle 2 101.5 11 99 11
3:00 ENE 5 Light Rain 2 101.5 11 99 11
2:00 NE 5 Light Rain 2 101.5 10 97 10
1:00 NE 4 Light Rain 3 101.5 11 97 11
 
Map of Atlantic - Newfoundland marine weather areas Southwestern Grand Banks - 44138 Banquereau - 44139 Tail of the Bank - 44140 Nickerson Bank - 44251 Northeast Burgeo Bank - 44255 Blanc-Sablon Airport Cap Whittle Chevery Natashquan Airport Heath Point Miscou Island Grand Étang Ingonish Beach North Mountain St.Paul Island J.A. Douglas McCurdy Sydney Airport Charlottetown Airport East Point North Cape Argentia Bonavista Burgeo Cape Race Corner Brook Daniel's Harbour Englee Ferolle Point La Scie Port aux Basques Rocky Harbour Sagona Island St. Anthony Airport St. John's Int'l Airport St. Lawrence Stephenville Airport Twillingate Winterland Wreckhouse Cartwright Airport Mary's Harbour Grates Cove Pool's Island Marticot Island Long Pond Îles de la Madeleine Airport
Legend: buoyBuoy land stationLand Station